Regional Weather Roundup
Issued by NWS Sioux Falls, SD

Home | Current Version | Previous Version | Text Only | Print | Product List | Glossary Off
Versions: 1 2 3 4 5 6 7 8 9 10 11 12 13 14 15 16 17 18 19 20 21 22 23 24 25 26 27 28 29 30 31 32 33 34 35 36 37 38 39 40 41 42 43 44 45 46 47 48 49 50

346
ASUS43 KFSD 061002
RWRFSD

WEATHER ROUNDUP FOR SE SOUTH DAKOTA/SW MINNESOTA/NW IOWA
NATIONAL WEATHER SERVICE SIOUX FALLS SD
400 AM CST TUE DEC 06 2016

NOTE: "FAIR" INDICATES FEW OR NO CLOUDS BELOW 12,000 FEET WITH NO
SIGNIFICANT WEATHER AND OR OBSTRUCTIONS TO VISIBILITY.


SDZ038>040-050-052>070-061100-
SOUTHEAST SOUTH DAKOTA

CITY           SKY/WX    TMP DP  RH WIND       PRES   REMARKS
CHAMBERLAIN    NOT AVBL
HURON          MOCLDY    15   7  70 W22G29    29.85R WCI  -3
MADISON        PTSUNNY   14   9  79 W21G31    29.79S WCI  -4
MITCHELL       MOCLDY    17  11  77 W15       29.89S WCI   2
SIOUX FALLS    MOCLDY    17  10  74 W18G31    29.84F WCI   1
WINNER         FAIR      17   8  67 W17G29    29.94R WCI   1
YANKTON        CLEAR     18   9  68 W20G26    29.93S WCI   1
$$

MNZ071-072-080-081-089-090-097-098-061100-
SOUTHWEST MINNESOTA

CITY           SKY/WX    TMP DP  RH WIND       PRES   REMARKS
FAIRMONT       CLOUDY    25  17  72 W22       29.80R WCI  10
JACKSON        CLOUDY    21  14  73 W20       29.80R WCI   6
LUVERNE        PTCLDY    18  10  73 W23G30    29.84S WCI   0
MARSHALL       CLEAR     17  10  74 W25G31    29.76S WCI  -1
MONTEVIDEO     CLOUDY    19  12  73 W16G29    29.74F WCI   5
PIPESTONE      MOCLDY    16  10  79 W22G30    29.78S WCI  -2
REDWOOD FALLS  CLOUDY    21  11  65 W21G32    29.77R WCI   5
TRACY          CLOUDY    19  13  79 W12G20    29.77S WCI   6
WINDOM         CLOUDY    19  12  73 W21       29.78R WCI   3
WORTHINGTON    CLOUDY    17  12  80 W24G31    29.80R WCI  -1
$$

IAZ001>003-012>014-020>022-031-032-NEZ013-014-SDZ071-061100-
NORTHWEST IOWA

CITY           SKY/WX    TMP DP  RH WIND       PRES   REMARKS
CHEROKEE       MOCLDY    24  19  80 W12       29.89S WCI  13
DENISON        CLOUDY    27  19  74 NW12      29.88S WCI  16
ESTHERVILLE    CLOUDY    23  16  74 W24       29.81R WCI   7
LE MARS        PTCLDY    21  14  73 W13G25    29.92R WCI   9
ORANGE CITY    CLOUDY    21  18  86 NW18G24   29.87R WCI   6
SHELDON        MOCLDY    19  14  79 W24       29.84R WCI   2
SIOUX CITY     MOCLDY    23  11  60 NW23G29   29.93R WCI   7
SPENCER        CLOUDY    22  14  71 W26G35    29.85R WCI   5
STORM LAKE     CLOUDY    23  18  80 NW22G28   29.86F WCI   8
$$

ABBREVIATIONS USED IN REMARKS
   TC - TEMPERATURE IN CELSIUS
  WCI - WIND CHILL INDEX
   HX - HEAT INDEX
  VSB - VISIBILITY





USA.gov is the U.S. government's official web portal to all federal, state and local government web resources and services.